When you browse on this site, cookies collect data to enhance your experience and personalize the content and advertising you see.
Visit our Privacy Policy to learn more. By continuing to use the site, you agree to this use of cookies and data.
  • In Latvia
  • List of Countries
  • For 7 days
  • Water Temperature
  • Weather Map
  • Weather Widgets
  • user-avatar
    Login

    Hourly Weather Eugene

    Today, 22 September, Sunday

    Time Temperature Precipitation Wind Pressure Humidity
    00:00 +14°C° 0 mm 1 mps 749 mmHg 95%
    01:00 +14°C° 0 mm 1 mps 749 mmHg 95%
    02:00 +14°C° 0 mm 1 mps 749 mmHg 95%
    03:00 +14°C° 0 mm 1 mps 749 mmHg 96%
    04:00 +14°C° 0 mm 1 mps 748 mmHg 94%
    05:00 +15°C° 0.3 mm 1 mps 748 mmHg 94%
    06:00 +15°C° 0.3 mm 1 mps 748 mmHg 94%
    07:00 +15°C° 0.3 mm 2 mps 748 mmHg 94%
    08:00 +16°C° 0.4 mm 2 mps 748 mmHg 94%
    09:00 +16°C° 0.4 mm 2 mps 747 mmHg 95%
    10:00 +16°C° 0.4 mm 2 mps 747 mmHg 95%
    11:00 +17°C° 0.3 mm 2 mps 747 mmHg 94%
    12:00 +17°C° 0.3 mm 2 mps 748 mmHg 92%
    13:00 +18°C° 0.3 mm 3 mps 748 mmHg 91%
    14:00 +18°C° 0.6 mm 3 mps 748 mmHg 88%
    15:00 +18°C° 0.6 mm 3 mps 748 mmHg 86%
    16:00 +19°C° 0.6 mm 3 mps 749 mmHg 84%
    17:00 +17°C° 0.2 mm 2 mps 749 mmHg 88%
    18:00 +16°C° 0.2 mm 2 mps 750 mmHg 91%
    19:00 +14°C° 0.2 mm 1 mps 750 mmHg 95%
    20:00 +14°C° 0 mm 1 mps 751 mmHg 96%
    21:00 +13°C° 0 mm 1 mps 752 mmHg 96%
    22:00 +13°C° 0 mm 1 mps 752 mmHg 97%
    23:00 +13°C° 0 mm 1 mps 752 mmHg 97%

    Tomorrow, 23 September, Monday

    Time Temperature Precipitation Wind Pressure Humidity
    00:00 +13°C° 0 mm 1 mps 753 mmHg 98%
    01:00 +13°C° 0 mm 1 mps 753 mmHg 98%
    02:00 +11°C° 0 mm 0 mps 753 mmHg 98%
    03:00 +11°C° 0 mm 0 mps 753 mmHg 98%
    04:00 +11°C° 0 mm 0 mps 754 mmHg 98%
    05:00 +11°C° 0 mm 0 mps 754 mmHg 97%
    06:00 +12°C° 0 mm 0 mps 755 mmHg 96%
    07:00 +12°C° 0 mm 0 mps 755 mmHg 96%
    08:00 +13°C° 0 mm 0 mps 755 mmHg 91%
    09:00 +15°C° 0 mm 0 mps 755 mmHg 87%
    10:00 +16°C° 0 mm 0 mps 756 mmHg 83%
    11:00 +20°C° 0 mm 1 mps 756 mmHg 71%
    12:00 +21°C° 0 mm 1 mps 755 mmHg 60%
    13:00 +23°C° 0 mm 1 mps 755 mmHg 49%
    14:00 +23°C° 0 mm 1 mps 755 mmHg 48%
    15:00 +23°C° 0 mm 1 mps 755 mmHg 47%
    16:00 +23°C° 0 mm 1 mps 755 mmHg 47%
    17:00 +21°C° 0 mm 1 mps 755 mmHg 55%
    18:00 +19°C° 0 mm 1 mps 755 mmHg 63%
    19:00 +14°C° 0 mm 0 mps 756 mmHg 72%
    20:00 +14°C° 0 mm 0 mps 756 mmHg 74%
    21:00 +13°C° 0 mm 0 mps 756 mmHg 76%
    22:00 +13°C° 0 mm 0 mps 756 mmHg 79%
    23:00 +13°C° 0 mm 0 mps 756 mmHg 79%

    Day after tomorrow, 24 September, Tuesday

    Time Temperature Precipitation Wind Pressure Humidity
    00:00 +12°C° 0 mm 0 mps 756 mmHg 80%
    01:00 +12°C° 0 mm 0 mps 756 mmHg 80%
    02:00 +13°C° 0 mm 0 mps 756 mmHg 78%
    03:00 +13°C° 0 mm 0 mps 756 mmHg 76%
    04:00 +13°C° 0 mm 0 mps 756 mmHg 73%
    05:00 +15°C° 0 mm 1 mps 756 mmHg 71%
    06:00 +15°C° 0 mm 1 mps 756 mmHg 69%
    07:00 +16°C° 0 mm 1 mps 757 mmHg 67%
    08:00 +19°C° 0 mm 1 mps 756 mmHg 63%
    09:00 +21°C° 0 mm 1 mps 756 mmHg 59%
    10:00 +22°C° 0 mm 1 mps 756 mmHg 54%
    11:00 +23°C° 0 mm 1 mps 756 mmHg 55%
    12:00 +25°C° 0 mm 1 mps 756 mmHg 55%
    13:00 +26°C° 0 mm 2 mps 756 mmHg 56%
    14:00 +26°C° 0 mm 2 mps 755 mmHg 56%
    15:00 +25°C° 0 mm 2 mps 755 mmHg 57%
    16:00 +25°C° 0 mm 2 mps 754 mmHg 57%
    17:00 +23°C° 0 mm 2 mps 754 mmHg 68%
    18:00 +20°C° 0 mm 1 mps 755 mmHg 79%
    19:00 +18°C° 0 mm 1 mps 755 mmHg 90%
    20:00 +16°C° 0 mm 1 mps 755 mmHg 92%
    21:00 +16°C° 0 mm 1 mps 755 mmHg 93%
    22:00 +14°C° 0 mm 0 mps 755 mmHg 95%
    23:00 +14°C° 0 mm 1 mps 755 mmHg 96%

    25 September, Wednesday

    Time Temperature Precipitation Wind Pressure Humidity
    00:00 +14°C° 0 mm 1 mps 755 mmHg 96%
    01:00 +13°C° 0 mm 1 mps 755 mmHg 97%
    02:00 +13°C° 0 mm 1 mps 755 mmHg 97%
    03:00 +12°C° 0 mm 1 mps 755 mmHg 97%
    04:00 +12°C° 0 mm 1 mps 755 mmHg 96%
    05:00 +12°C° 0 mm 1 mps 755 mmHg 96%
    06:00 +12°C° 0 mm 1 mps 754 mmHg 95%
    07:00 +12°C° 0 mm 1 mps 754 mmHg 94%
    08:00 +14°C° 0 mm 2 mps 754 mmHg 82%
    09:00 +17°C° 0 mm 2 mps 754 mmHg 69%
    10:00 +19°C° 0 mm 2 mps 754 mmHg 57%
    11:00 +20°C° 0 mm 3 mps 753 mmHg 51%
    12:00 +21°C° 0 mm 3 mps 753 mmHg 46%
    13:00 +23°C° 0 mm 4 mps 752 mmHg 40%
    14:00 +22°C° 0 mm 4 mps 752 mmHg 42%
    15:00 +22°C° 0 mm 3 mps 751 mmHg 43%
    16:00 +22°C° 0 mm 3 mps 751 mmHg 45%
    17:00 +20°C° 0 mm 3 mps 751 mmHg 53%
    18:00 +18°C° 0 mm 2 mps 751 mmHg 62%
    19:00 +15°C° 0 mm 1 mps 751 mmHg 70%
    20:00 +15°C° 0 mm 1 mps 751 mmHg 72%
    21:00 +13°C° 0 mm 0 mps 751 mmHg 75%
    22:00 +13°C° 0 mm 0 mps 751 mmHg 77%
    23:00 +13°C° 0 mm 0 mps 750 mmHg 78%

    26 September, Thursday

    Time Temperature Precipitation Wind Pressure Humidity
    00:00 +13°C° 0 mm 1 mps 750 mmHg 79%
    01:00 +13°C° 0 mm 1 mps 749 mmHg 80%
    02:00 +13°C° 0 mm 1 mps 749 mmHg 79%
    03:00 +13°C° 0 mm 1 mps 749 mmHg 79%
    04:00 +14°C° 0 mm 1 mps 749 mmHg 79%
    05:00 +14°C° 0 mm 1 mps 749 mmHg 80%
    06:00 +14°C° 0 mm 1 mps 749 mmHg 81%
    07:00 +15°C° 0 mm 1 mps 749 mmHg 82%
    08:00 +15°C° 0.1 mm 1 mps 749 mmHg 81%
    09:00 +16°C° 0.1 mm 2 mps 749 mmHg 79%
    10:00 +17°C° 0.1 mm 2 mps 749 mmHg 77%
    11:00 +18°C° 0 mm 2 mps 749 mmHg 66%
    12:00 +20°C° 0 mm 3 mps 749 mmHg 55%
    13:00 +21°C° 0 mm 3 mps 749 mmHg 44%
    14:00 +21°C° 0 mm 3 mps 749 mmHg 42%
    15:00 +21°C° 0 mm 3 mps 749 mmHg 40%
    16:00 +21°C° 0 mm 3 mps 749 mmHg 38%
    17:00 +18°C° 0 mm 2 mps 749 mmHg 47%
    18:00 +15°C° 0 mm 2 mps 750 mmHg 56%
    19:00 +12°C° 0 mm 1 mps 750 mmHg 65%
    20:00 +11°C° 0 mm 1 mps 750 mmHg 72%
    21:00 +10°C° 0 mm 1 mps 751 mmHg 78%
    22:00 +8°C° 0 mm 0 mps 751 mmHg 85%
    23:00 +7°C° 0 mm 0 mps 751 mmHg 87%

    27 September, Friday

    Time Temperature Precipitation Wind Pressure Humidity
    00:00 +7°C° 0 mm 0 mps 751 mmHg 89%
    01:00 +8°C° 0 mm 1 mps 751 mmHg 91%
    02:00 +9°C° 0 mm 1 mps 751 mmHg 87%
    03:00 +9°C° 0 mm 1 mps 751 mmHg 84%
    04:00 +10°C° 0 mm 1 mps 751 mmHg 80%
    05:00 +10°C° 0 mm 1 mps 751 mmHg 79%
    06:00 +10°C° 0 mm 1 mps 751 mmHg 78%
    07:00 +10°C° 0 mm 0 mps 751 mmHg 77%
    08:00 +12°C° 0 mm 0 mps 751 mmHg 68%
    09:00 +14°C° 0 mm 0 mps 750 mmHg 60%
    10:00 +17°C° 0 mm 0 mps 750 mmHg 51%
    11:00 +19°C° 0 mm 1 mps 749 mmHg 50%
    12:00 +19°C° 0 mm 1 mps 749 mmHg 48%
    13:00 +19°C° 0 mm 2 mps 749 mmHg 47%
    14:00 +18°C° 0.1 mm 2 mps 748 mmHg 53%
    15:00 +17°C° 0.1 mm 2 mps 748 mmHg 58%
    16:00 +16°C° 0.1 mm 3 mps 747 mmHg 64%
    17:00 +14°C° 0.1 mm 2 mps 748 mmHg 71%
    18:00 +12°C° 0.1 mm 1 mps 748 mmHg 78%
    19:00 +10°C° 0.1 mm 1 mps 748 mmHg 85%
    20:00 +9°C° 0 mm 1 mps 748 mmHg 87%
    21:00 +7°C° 0 mm 0 mps 748 mmHg 89%
    22:00 +7°C° 0 mm 0 mps 748 mmHg 91%
    23:00 +6°C° 0 mm 0 mps 748 mmHg 92%
    Show more